Terug naar catalogus

KINEIS-3D

ActiefCommunicatieSSO
NORAD 61221·PAYLOAD·🇫🇷 France

Gelanceerd Sep 20, 2024 vanaf Rocket Lab Launch Complex 1

Loading…

Volgende Passages (komende 24 uur)

TLE

VersSource: Space-Track

Epoch: Sep 14, 2026, 05:33 UTC

1 61221U 24172B   26257.23132071  .00001308  00000-0  21477-3 0  9995
2 61221  98.0410 346.1851 0001195 156.2309 203.8954 14.72308233106456

Volg KINEIS-3D in realtime met AllMySat

Download on the App Store